Regional Weather Roundup
Issued by NWS

Home | Current Version | Previous Version | Text Only | Print | Product List | Glossary On
Versions: 1 2 3 4 5 6 7 8 9 10 11 12 13 14 15 16 17 18 19 20 21 22 23 24 25 26 27 28 29 30 31 32 33 34 35 36 37 38 39 40 41 42 43 44 45 46 47 48 49 50
000
ASUS44 KFWD 221815
RWRTX
NORTH TEXAS HOURLY WEATHER ROUNDUP
NATIONAL WEATHER SERVICE FORT WORTH TX
100 PM CDT TUE JUL 22 2014

NOTE: "FAIR" INDICATES FEW OR NO CLOUDS BELOW 12,000 FEET WITH NO
SIGNIFICANT WEATHER AND/OR OBSTRUCTIONS TO VISIBILITY.

TXZ118-119-221900-
DALLAS/FORT WORTH METROPLEX

CITY           SKY/WX    TMP DP  RH WIND       PRES   REMARKS
DFW AIRPORT    PTSUNNY   92  72  51 NE6       30.05F HX  99
6HR MIN TEMP:  77; 6HR MAX TEMP:  93;

DALLAS LOVE    MOSUNNY   93  71  48 CALM      30.05F HX 100
6HR MIN TEMP:  78; 6HR MAX TEMP:  93;

FTW MEACHAM    SUNNY     93  72  50 VRB5      30.05F HX 101
6HR MIN TEMP:  78; 6HR MAX TEMP:  95;

DAL-EXECUTIVE  MOSUNNY   94  72  48 E5        30.06F HX 102
6HR MIN TEMP:  76; 6HR MAX TEMP:  94;

FTW-ALLIANCE   MOSUNNY   92  73  53 NE3       30.06F HX 100
6HR MIN TEMP:  75; 6HR MAX TEMP:  92;

FTW-NAS-JRB    MOSUNNY   94  71  47 NE5       30.09F HX 101
6HR MIN TEMP:  80; 6HR MAX TEMP:  95;

FTW-SPINKS     MOSUNNY   93  70  46 CALM      30.07F HX  99
ARLINGTON      PTSUNNY   93  70  46 CALM      30.06F HX  99
6HR MIN TEMP:  77; 6HR MAX TEMP:  93;

GRAND PRAIRIE  SUNNY     91  73  55 CALM      30.07  HX 100
ADDISON        MOSUNNY   91  72  52 CALM      30.07F HX  98
MESQUITE       PTSUNNY   90  72  55 W3        30.06F HX  96
LANCASTER      MOSUNNY   91  71  50 E5        30.06F HX  97
6HR MIN TEMP:  72; 6HR MAX TEMP:  93;

$$

TXZ091>094-102>105-117-120-121-131>134-221900-
NORTH CENTRAL TEXAS

CITY           SKY/WX    TMP DP  RH WIND       PRES   REMARKS
SHRMAN/DENISON SUNNY     90  71  52 N3        30.09F HX  96
6HR MIN TEMP:  75; 6HR MAX TEMP:  90;

GAINESVILLE    MOSUNNY   89  74  61 SE5       30.10S HX  97
6HR MIN TEMP:  73; 6HR MAX TEMP:  89;

BOWIE          MOSUNNY   90  73  57 S5        30.09S HX  97
6HR MIN TEMP:  74; 6HR MAX TEMP:  90;

BRIDGEPORT     MOSUNNY   90  69  49 SE6       30.09F HX  95
6HR MIN TEMP:  73; 6HR MAX TEMP:  91;

DECATUR        MOSUNNY   91  71  52 E5        30.09S HX  96
6HR MIN TEMP:  74; 6HR MAX TEMP:  91;

DENTON         MOSUNNY   90  73  57 CALM      30.07S HX  98
6HR MIN TEMP:  76; 6HR MAX TEMP:  90;

MCKINNEY       SUNNY     90  73  57 VRB5      30.07S HX  98
6HR MIN TEMP:  73; 6HR MAX TEMP:  90;

GREENVILLE     MOSUNNY   88  70  55 CALM      30.08S HX  92
ROCKWALL       PTSUNNY   89  74  60 E6        30.06F HX  98
6HR MIN TEMP:  73; 6HR MAX TEMP:  89;

TERRELL        MOSUNNY   92  72  51 VRB3      30.07S HX  99
6HR MIN TEMP:  75; 6HR MAX TEMP:  92;

WAXAHACHIE     MOSUNNY   93  67  42 NE3       30.06F HX  97
CLEBURNE       PTSUNNY   93  73  52 S5        30.08F HX 102
GRANBURY       MOSUNNY   95  69  42 NE6       30.07F HX 100
6HR MIN TEMP:  77; 6HR MAX TEMP:  96;

$$

TXZ083>090-098>101-113>116-127>130-139>142-154-155-221900-
WESTERN NORTH TEXAS

CITY           SKY/WX    TMP DP  RH WIND       PRES   REMARKS
WICHITA FALLS  MOSUNNY   92  74  55 SE7       30.07S HX 101
6HR MIN TEMP:  74; 6HR MAX TEMP:  92;

WF-KICKAPOO    SUNNY     92  70  48 SE6       30.09S HX  98
6HR MIN TEMP:  76; 6HR MAX TEMP:  92;

VERNON         SUNNY     95  70  43 SE7       30.09F HX 101
ABILENE        MOSUNNY   93  70  46 S6        30.11F HX  99
ABILENE-DYESS  PTSUNNY   92  71  50 VRB6      30.10F HX  98
6HR MIN TEMP:  74; 6HR MAX TEMP:  92;

BRECKENRIDGE   MOSUNNY   95  67  38 CALM      30.07F HX  98
6HR MIN TEMP:  78; 6HR MAX TEMP:  95;

MINERAL WELLS  SUNNY     93  68  43 E3        30.06F HX  97
6HR MIN TEMP:  75; 6HR MAX TEMP:  94;

STEPHENVILLE   PTSUNNY   90  68  48 SE5       30.11F HX  94
6HR MIN TEMP:  75; 6HR MAX TEMP:  92;

COMANCHE       SUNNY     91  68  46 CALM      30.10F HX  95
6HR MIN TEMP:  73; 6HR MAX TEMP:  92;

BROWNWOOD      MOSUNNY   91  68  46 E5        30.10F HX  95
COLEMAN        MOSUNNY   90  69  48 CALM      30.11F HX  94
6HR MIN TEMP:  74; 6HR MAX TEMP:  91;

BRADY          SUNNY     91  66  43 SE7       30.11F HX  94
$$

TXZ143>147-156>162-174-175-221900-
CENTRAL TEXAS

CITY           SKY/WX    TMP DP  RH WIND       PRES   REMARKS
WACO           MOSUNNY   92  72  51 VRB3      30.06S HX  99
6HR MIN TEMP:  77; 6HR MAX TEMP:  94;

WACO-TSTC      SUNNY     93  72  49 S5        30.05F HX 100
WACO-MCGREGOR  MOSUNNY   91  72  52 N3        30.06F HX  98
6HR MIN TEMP:  75; 6HR MAX TEMP:  93;

HILLSBORO      PTSUNNY   93  70  46 SE3       30.06F HX  99
6HR MIN TEMP:  75; 6HR MAX TEMP:  94;

CORSICANA      PTSUNNY   91  72  53 SE7       30.07S HX  98
6HR MIN TEMP:  77; 6HR MAX TEMP:  92;

MEXIA          SUNNY     89  75  63 CALM      30.06S HX 100
6HR MIN TEMP:  74; 6HR MAX TEMP:  89;

HEARNE         SUNNY     93  75  54 SE3       30.06S HX 104
6HR MIN TEMP:  77; 6HR MAX TEMP:  93;

CAMERON        SUNNY     91  71  53 S5        30.06S HX  97
6HR MIN TEMP:  76; 6HR MAX TEMP:  91;

TEMPLE         MOSUNNY   90  70  51 SE3       30.07F HX  95
6HR MIN TEMP:  73; 6HR MAX TEMP:  90;

KILLEEN        MOSUNNY   90  66  45 S7        30.07F HX  92
KILLEEN-SKYLRK MOSUNNY   93  68  43 SW5       30.06F HX  97
6HR MIN TEMP:  75; 6HR MAX TEMP:  93;

FORT HOOD      MOSUNNY   95  69  42 SE5       30.07F HX 100
6HR MIN TEMP:  77; 6HR MAX TEMP:  95;

GATESVILLE     SUNNY     93  70  46 S6        30.09S HX  99
HAMILTON       SUNNY     91  69  48 SE3       30.10F HX  95
6HR MIN TEMP:  74; 6HR MAX TEMP:  91;

LAMPASAS       SUNNY     91  69  48 S5        30.08F HX  95
6HR MIN TEMP:  74; 6HR MAX TEMP:  91;

$$

TXZ095>097-106>112-122>126-135>138-148>153-164>167-221900-
EAST TEXAS

CITY           SKY/WX    TMP DP  RH WIND       PRES   REMARKS
PARIS          PTSUNNY   86  68  54 CALM      30.10S
6HR MIN TEMP:  70; 6HR MAX TEMP:  86;

SULPHUR SPRNGS MOSUNNY   87  70  57 N5        30.10S HX  92
6HR MIN TEMP:  71; 6HR MAX TEMP:  88;

CLARKSVILLE    SUNNY     88  69  52 CALM      30.09S HX  92
6HR MIN TEMP:  71; 6HR MAX TEMP:  88;

MOUNT PLEASANT SUNNY     86  68  54 S3        30.10S
6HR MIN TEMP:  69; 6HR MAX TEMP:  86;

GILMER         MOSUNNY   88  72  58 N7        30.09F HX  94
MINEOLA        PTSUNNY   88  73  62 E3        30.08F HX  96
TYLER          PTSUNNY   88  71  57 NE5       30.07F HX  94
6HR MIN TEMP:  74; 6HR MAX TEMP:  89;

LONGVIEW       MOSUNNY   87  69  54 CALM      30.07S HX  91
6HR MIN TEMP:  70; 6HR MAX TEMP:  88;

MARSHALL       PTSUNNY   89  72  57 E5        30.10S HX  95
6HR MIN TEMP:  71; 6HR MAX TEMP:  89;

ATHENS         MOSUNNY   86  72  62 E6        30.05F HX  92
JACKSONVILLE   MOSUNNY   87  73  62 SE3       30.10S HX  94
HENDERSON      MOSUNNY   88  69  53 CALM      30.08F HX  91
6HR MIN TEMP:  69; 6HR MAX TEMP:  88;

NACOGDOCHES    PTSUNNY   84  72  65 CALM      30.07S
6HR MIN TEMP:  73; 6HR MAX TEMP:  86;

LUFKIN         PTSUNNY   89  74  60 CALM      30.06S HX  98
6HR MIN TEMP:  77; 6HR MAX TEMP:  89;

$$

SUPPLEMENTAL OBSERVATIONS (CENTRAL)

CITY           SKY/WX    TMP DP  RH WIND       PRES   REMARKS
LAKE TEXOMA      N/A     84  72  65 N2          N/A
PAT MAYSE LAKE   N/A     84  68  58 S3          N/A
GREENVILLE       N/A     90  72  55 NE3         N/A  HX  96
CEDAR HILL       N/A     93  72  49 NW2         N/A  HX 100
LAKE LIMESTONE   N/A     91  79  66 E2          N/A  HX 107
MCGREGOR         N/A     93  70  46 E3          N/A  HX  99
$$

SUPPLEMENTAL OBSERVATIONS (WEST)

CITY           SKY/WX    TMP DP  RH WIND       PRES   REMARKS
MILLERS CREEK    N/A     97  73  46 SE6         N/A  HX 107
GRANBURY         N/A     95  68  41 E8          N/A  HX  99
COMANCHE         N/A     91  72  52 SE6         N/A  HX  98
HAMBY            N/A     93  68  43 S7          N/A  HX  97
IVIE RESERVOIR   N/A     93  70  46 SE7         N/A  HX  99


USA.gov is the U.S. government's official web portal to all federal, state and local government web resources and services.